Aérodrome :
LOGIN :

S'inscrire | Disclaimer

   EN    FR    IT 

 










Légende :    VFR   VFR Marginal   IFR   IFR Intensif   IFR Très Intensif
Visi : 
Plafond : 
>= 8 km
>= 3000ft
5 à 8 km
1000 à 3000 ft
1500m à 5 km
500 à 1000 ft
800 à 1500m
200 à 500 ft
< 800m
< 200 ft
Symboles :   Orages  Brouillard  Fortes neiges  Fortes précipitations  Vent > 20 kt
SIGMETs :   Divers  Orages  Givrage  Turbulence  Onde Orograph.  Cendres Volcan.







- Altitude de l'aérodrome : 124 ft
- Code IATA : NHT
- Voir les cartes d'approche


EGWU - RAF Northolt

DERNIER METAR :
  • 210150Z AUTO 33001KT 4800 // SCT035/// M04/M05 Q1024

METARs EXPIRÉS :
  • 210050Z AUTO 34001KT 5000 // NCD M04/M05 Q1024

TAF TAF EGWU
Valide du 21 à 00h jusqu'au 21 à 18h UTC


202244Z 2100/2118 24003KT 6000 HZ FEW015 BKN035
TEMPO 2100/2109 SCT012
PROB30
TEMPO 2102/2109 3000 BR
BECMG 2109/2112 9999 NSW
TEMPO 2109/2116 BKN020
Pas de NOTAMs connus pour ce terrain.



MET'MAP, la Météo Aéronautique d'un coup d'oeil ! - Copyright ORBIFLY Décembre 2007 - Disclaimer

ORBIFLY MET'MAP TEAM :

Programmation & Développement : Alexandra Zaïnal
Conception & Développement : Baudouin d'Aumeries
Co-Programmation & Développement : Marc-Olivier Méhu
Soutien technique & logistique : Manuel Goepfert

Contact : metmap@orbifly.com




SOURCES & CREDITS :

   NOAA